Flag for Portugal Weather past 2 weeks in Amadora, Portugal

Now
64 °F

Scattered clouds.


Feels Like: 64 °F
Forecast: N/A
Wind: 12 mph from North

Location: Lisbon Portela Airport

Current Time: Mar 3, 2015 at 3:59:15 PM

Latest Report: Mar 3, 2015 at 3:00 PM


Visibility: N/A

Pressure: 30.27 "Hg

Humidity: 60%

Dew point: 50 °F

Location of AmadoraLocation

Historic Weather in Amadora — Graph

°F

Amadora temperature yesterday

Maximum temperature yesterday: 63 °F (at 2:30 PM)
Minimum temperature yesterday: 54 °F (at 4:00 AM)
Average temperature yesterday: 57 °F

Past Weeks' High & Low Weather Summary

 TemperatureHumidityPressure
High64 °F (Mar 3, 1:30 PM)100% (Feb 20, 11:30 PM)30.60 "Hg (Feb 20, 11:30 PM)
Low45 °F (Feb 18, 7:00 AM)38% (Feb 17, 7:30 PM)29.92 "Hg (Feb 21, 4:00 AM)
Average54 °F77%30.32 "Hg
* Reported Feb 16 2:00 PM — Mar 3 2:30 PM, Amadora, Weather by CustomWeather, © 2015

Note: Actual official high and low records may vary slightly from our data, if they occured in-between our weather recording intervals... More about our weather records

Advertising

Amadora weather history for previous 24 hours

 ConditionsComfort  
Time TempWeatherWind HumidityBarometerVisibility
2:30 PM
Tue, Mar 3
64 °FPartly sunny.9 mph60%30.30 "HgN/A
2:00 PM63 °FPartly sunny.10 mph59%30.30 "HgN/A
1:30 PM64 °FPartly sunny.8 mph64%30.30 "HgN/A
1:00 PM61 °FPartly sunny.8 mph68%30.30 "HgN/A
12:30 PM61 °FPartly sunny.8 mph72%30.33 "HgN/A
12:00 PM59 °FPartly sunny.5 mph77%30.33 "HgN/A
11:30 AM57 °FPartly sunny.7 mph82%30.33 "HgN/A
11:00 AM57 °FPartly sunny.9 mph82%30.33 "HgN/A
10:30 AM57 °FPartly sunny.7 mph82%30.33 "HgN/A
10:00 AM57 °FPartly sunny.5 mph82%30.33 "HgN/A
9:30 AM55 °FPartly sunny.3 mph88%30.33 "HgN/A
9:00 AM55 °FScattered clouds.5 mph88%30.30 "HgN/A
8:30 AM55 °FPassing clouds.1 mph88%30.30 "HgN/A
8:00 AM52 °FPassing clouds.1 mph94%30.30 "HgN/A
7:30 AM50 °FPassing clouds.1 mph94%30.27 "HgN/A
7:00 AM50 °FPassing clouds.3 mph100%30.27 "HgN/A
6:30 AM52 °FPassing clouds.7 mph94%30.27 "HgN/A
6:00 AM52 °FPassing clouds.5 mph94%30.27 "HgN/A
5:30 AM52 °FPassing clouds.3 mph94%30.27 "HgN/A
5:00 AM54 °FPassing clouds.5 mph88%30.27 "HgN/A
4:30 AM54 °FPassing clouds.8 mph94%30.27 "HgN/A
4:00 AM54 °FPassing clouds.8 mph94%30.27 "HgN/A
3:30 AM54 °FPassing clouds.2 mph94%30.27 "HgN/A
3:00 AM54 °FPassing clouds.9 mph94%30.27 "HgN/A
2:30 AM54 °FPassing clouds.9 mph88%30.30 "HgN/A
2:00 AM54 °FPassing clouds.12 mph94%30.30 "HgN/A
1:30 AM54 °FPassing clouds.13 mph94%30.30 "HgN/A
1:00 AM54 °FPassing clouds.12 mph94%30.30 "HgN/A
12:30 AM54 °FPassing clouds.13 mph94%30.30 "HgN/A
12:00 AM54 °FPassing clouds.12 mph94%30.30 "HgN/A
11:30 PM
Mon, Mar 2
54 °FPassing clouds.12 mph94%30.30 "HgN/A
11:00 PM54 °FPassing clouds.9 mph94%30.30 "HgN/A
10:30 PM54 °FPassing clouds.9 mph94%30.30 "HgN/A
10:00 PM54 °FPassing clouds.9 mph94%30.30 "HgN/A
9:00 PM55 °FPassing clouds.9 mph88%30.30 "HgN/A
8:30 PM55 °FPassing clouds.9 mph88%30.30 "HgN/A
8:00 PM55 °FPassing clouds.10 mph88%30.30 "HgN/A
7:30 PM55 °FPassing clouds.8 mph88%30.30 "HgN/A
7:00 PM57 °FPassing clouds.8 mph88%30.27 "HgN/A
6:30 PM61 °FPassing clouds.7 mph77%30.27 "HgN/A
6:00 PM63 °FPassing clouds.2 mph68%30.27 "HgN/A
5:30 PM61 °FPassing clouds.3 mph83%30.27 "HgN/A
5:00 PM61 °FScattered clouds.3 mph83%30.27 "HgN/A
4:30 PM63 °FScattered clouds.3 mph77%30.30 "HgN/A
4:00 PM61 °FScattered clouds.5 mph83%30.30 "HgN/A
3:30 PM63 °FScattered clouds.5 mph77%30.30 "HgN/A
3:00 PM63 °FPartly sunny.5 mph77%30.30 "HgN/A
Weather by CustomWeather, © 2015

See weather overviewHow to use our weather pages